User: anonymous   Login
Location: Unspecified
(0.0000°N, 0.0000°E)
Time: 00:41:29
(UTC+00:00)
Language:

Transit 2A - Orbit

View from above orbital plane
View from above orbital plane
View from above satellite
View from above satellite

Ground track
Ground track

The orbit data is extracted from the following two-line orbital elements,

1    45U 60007A   17206.55638040 -.00000073 +00000-0 +87988-5 0  9995
2    45 066.6950 288.5227 0255196 003.9234 356.3784 14.33557799914234
Epoch (UTC): 25 July 2017 13:21:11
Eccentricity: 0.0255196
inclination: 66.6950°
perigee height: 597 km
apogee height: 962 km
right ascension of ascending node: 288.5227°
argument of perigee: 3.9234°
revolutions per day: 14.33557799
mean anomaly at epoch: 356.3784°
orbit number at epoch: 91423

The dashed part of the orbit path shows where the satellite is in the earth's shadow,  

DLR